Location: Vista Encantada
(35.1109°N, 106.5681°W)
Time: 08:55:08
(UTC+00:00)

Meteor 1-24 Rocket - Pass Details

Date: 29 October 2020
Orbit: 791 x 927 km, 81.3° (Epoch: 04 December)

Event Time Altitude Azimuth Distance (km) Brightness Sun altitude
Rises 12:06:46 0° 205° (SSW) 3,363 6.6 -16.6°
Reaches altitude 10° 12:09:15 10° 212° (SSW) 2,454 5.9 -16.1°
Maximum altitude 12:14:30 43° 283° (WNW) 1,205 4.0 -15.0°
Drops below altitude 10° 12:20:00 10° 354° (N) 2,556 6.1 -13.9°
Sets 12:22:39 0° 1° (N) 3,519 6.9 -13.3°
